| time (UTC) | temp C | wind direction | speed KPH | gust KPH | rain 1hr cm | rain 24hr cm | rain mn cm | humidity % | barometer mb |
| 20260508165057 | 16 | 226 | 12.9 | 16.1 | 0.00 | 0.00 | 0.00 | 55 | 1015.4 |
| 20260508164154 | 16 | 229 | 14.5 | 20.9 | 0.00 | 0.00 | 0.00 | 54 | 1015.5 |
| 20260508163252 | 16 | 244 | 11.3 | 14.5 | 0.00 | 0.00 | 0.00 | 56 | 1015.6 |
| 20260508162254 | 16 | 246 | 8.0 | 12.9 | 0.00 | 0.00 | 0.00 | 54 | 1015.5 |
| 20260508161352 | 16 | 240 | 11.3 | 17.7 | 0.00 | 0.00 | 0.00 | 55 | 1015.6 |
| 20260508160354 | 16 | 237 | 12.9 | 20.9 | 0.00 | 0.00 | 0.00 | 53 | 1015.5 |
| 20260508155353 | 16 | 232 | 17.7 | 22.5 | 0.00 | 0.00 | 0.00 | 56 | 1015.8 |
| 20260508154354 | 16 | 235 | 12.9 | 20.9 | 0.00 | 0.00 | 0.00 | 57 | 1015.9 |
| 20260508153353 | 15 | 253 | 9.7 | 12.9 | 0.00 | 0.00 | 0.00 | 56 | 1016.1 |
| 20260508152354 | 15 | 229 | 9.7 | 16.1 | 0.00 | 0.00 | 0.00 | 56 | 1016.1 |
| 20260508151355 | 15 | 263 | 12.9 | 20.9 | 0.00 | 0.00 | 0.00 | 58 | 1016.3 |
| 20260508150356 | 14 | 225 | 11.3 | 16.1 | 0.00 | 0.00 | 0.00 | 58 | 1016.5 |
| 20260508145356 | 14 | 245 | 14.5 | 27.4 | 0.00 | 0.00 | 0.00 | 57 | 1016.6 |
| 20260508143454 | 13 | 226 | 12.9 | 17.7 | 0.00 | 0.00 | 0.00 | 59 | 1016.5 |
| 20260508142455 | 13 | 230 | 12.9 | 17.7 | 0.00 | 0.00 | 0.00 | 57 | 1016.5 |
| 20260508141453 | 13 | 227 | 16.1 | 19.3 | 0.00 | 0.00 | 0.00 | 58 | 1016.5 |
| 20260508140455 | 13 | 244 | 11.3 | 19.3 | 0.00 | 0.00 | 0.00 | 59 | 1016.6 |
| 20260508135554 | 13 | 218 | 14.5 | 19.3 | 0.00 | 0.00 | 0.00 | 59 | 1016.6 |
| 20260508134554 | 13 | 230 | 14.5 | 20.9 | 0.00 | 0.00 | 0.00 | 61 | 1016.6 |
| 20260508132554 | 12 | 246 | 11.3 | 16.1 | 0.00 | 0.00 | 0.00 | 63 | 1016.6 |
| 20260508131554 | 12 | 226 | 14.5 | 19.3 | 0.00 | 0.00 | 0.00 | 65 | 1016.6 |
| 20260508131454 | 12 | 232 | 14.5 | 19.3 | 0.00 | 0.00 | 0.00 | 65 | 1016.6 |
| 20260508130453 | 11 | 233 | 14.5 | 27.4 | 0.00 | 0.00 | 0.00 | 67 | 1016.6 |
| 20260508123552 | 10 | 225 | 3.2 | 11.3 | 0.00 | 0.00 | 0.00 | 72 | 1016.6 |
| 20260508122555 | 9 | 204 | 4.8 | 6.4 | 0.00 | 0.00 | 0.00 | 73 | 1016.6 |
| 20260508121553 | 8 | 178 | 4.8 | 8.0 | 0.00 | 0.00 | 0.00 | 74 | 1016.5 |
| 20260508121454 | 8 | 197 | 3.2 | 8.0 | 0.00 | 0.00 | 0.00 | 75 | 1016.4 |
| 20260508120553 | 8 | 180 | 3.2 | 4.8 | 0.00 | 0.00 | 0.00 | 77 | 1016.5 |
| 20260508120453 | 8 | 190 | 3.2 | 8.0 | 0.00 | 0.00 | 0.00 | 77 | 1016.5 |
| 20260508115454 | 7 | 225 | 3.2 | 6.4 | 0.00 | 0.00 | 0.00 | 78 | 1016.4 |
| 20260508114454 | 7 | 211 | 4.8 | 6.4 | 0.00 | 0.00 | 0.00 | 81 | 1016.4 |
| 20260508113453 | 7 | 209 | 3.2 | 4.8 | 0.00 | 0.00 | 0.00 | 84 | 1016.3 |
| 20260508112455 | 6 | 196 | 0.0 | 1.6 | 0.00 | 0.00 | 0.00 | 84 | 1016.1 |
| 20260508112354 | 6 | 194 | 0.0 | 0.0 | 0.00 | 0.00 | 0.00 | 84 | 1016.1 |
| 20260508111355 | 5 | 207 | 0.0 | 3.2 | 0.00 | 0.00 | 0.00 | 84 | 1015.8 |
| 20260508110355 | 5 | 180 | 0.0 | 0.0 | 0.00 | 0.00 | 0.00 | 86 | 1015.7 |
| 20260508105354 | 5 | 181 | 1.6 | 3.2 | 0.00 | 0.00 | 0.00 | 87 | 1015.5 |
| 20260508104452 | 4 | 180 | 0.0 | 1.6 | 0.00 | 0.00 | 0.00 | 89 | 1015.6 |
| 20260508103454 | 4 | 180 | 0.0 | 0.0 | 0.00 | 0.00 | 0.00 | 89 | 1015.5 |
| 20260508102456 | 3 | 180 | 0.0 | 0.0 | 0.00 | 0.00 | 0.00 | 91 | 1015.4 |
| 20260508101554 | 3 | 180 | 0.0 | 0.0 | 0.00 | 0.00 | 0.00 | 90 | 1015.2 |
| 20260508095554 | 3 | 180 | 0.0 | 0.0 | 0.00 | 0.00 | 0.00 | 93 | 1015.0 |
| 20260508094554 | 3 | 49 | 0.0 | 0.0 | 0.00 | 0.00 | 0.00 | 92 | 1015.2 |
| 20260508093554 | 3 | 45 | 0.0 | 0.0 | 0.00 | 0.00 | 0.00 | 91 | 1015.3 |
| 20260508092555 | 3 | 45 | 0.0 | 0.0 | 0.00 | 0.00 | 0.00 | 91 | 1015.3 |
| 20260508091654 | 3 | 45 | 0.0 | 0.0 | 0.00 | 0.00 | 0.00 | 90 | 1015.3 |
| 20260508090709 | 3 | 45 | 0.0 | 0.0 | 0.00 | 0.00 | 0.00 | 90 | 1015.4 |
| 20260508084652 | 4 | 45 | 0.0 | 0.0 | 0.00 | 0.00 | 0.00 | 89 | 1015.3 |
| 20260508083655 | 4 | 45 | 0.0 | 0.0 | 0.00 | 0.00 | 0.00 | 88 | 1015.4 |
| 20260508081753 | 5 | 45 | 0.0 | 0.0 | 0.00 | 0.00 | 0.00 | 84 | 1015.4 |
| 20260508080753 | 5 | 45 | 0.0 | 0.0 | 0.00 | 0.00 | 0.00 | 82 | 1015.4 |
| 20260508075754 | 6 | 45 | 1.6 | 3.2 | 0.00 | 0.00 | 0.00 | 79 | 1015.5 |
| 20260508074811 | 6 | 135 | 0.0 | 0.0 | 0.00 | 0.00 | 0.00 | 78 | 1015.6 |
| 20260508073854 | 7 | 67 | 0.0 | 1.6 | 0.00 | 0.00 | 0.00 | 75 | 1015.8 |
| 20260508072909 | 7 | 360 | 0.0 | 0.0 | 0.00 | 0.00 | 0.00 | 75 | 1015.7 |
| 20260508071954 | 7 | 270 | 0.0 | 0.0 | 0.00 | 0.00 | 0.00 | 75 | 1015.8 |
| 20260508071052 | 7 | 135 | 3.2 | 4.8 | 0.00 | 0.00 | 0.00 | 75 | 1015.7 |
| 20260508070052 | 8 | 360 | 0.0 | 0.0 | 0.00 | 0.00 | 0.00 | 73 | 1016.3 |
| 20260508065053 | 8 | 180 | 0.0 | 0.0 | 0.00 | 0.00 | 0.00 | 72 | 1015.9 |
| 20260508064054 | 8 | 180 | 0.0 | 0.0 | 0.00 | 0.00 | 0.00 | 70 | 1015.8 |
| 20260508063153 | 8 | 186 | 3.2 | 4.8 | 0.00 | 0.00 | 0.00 | 70 | 1015.7 |
| 20260508062155 | 8 | 210 | 3.2 | 4.8 | 0.00 | 0.00 | 0.00 | 70 | 1015.8 |
| 20260508062053 | 8 | 225 | 1.6 | 3.2 | 0.00 | 0.00 | 0.00 | 70 | 1015.8 |
| 20260508061054 | 8 | 209 | 6.4 | 8.0 | 0.00 | 0.00 | 0.00 | 70 | 1015.9 |
| 20260508060052 | 8 | 220 | 3.2 | 6.4 | 0.00 | 0.00 | 0.00 | 72 | 1015.8 |
| 20260508054054 | 8 | 180 | 4.8 | 6.4 | 0.00 | 0.00 | 0.00 | 71 | 1015.8 |
| 20260508053152 | 7 | 184 | 3.2 | 6.4 | 0.00 | 0.00 | 0.00 | 70 | 1015.9 |
| 20260508052154 | 8 | 180 | 1.6 | 3.2 | 0.00 | 0.00 | 0.00 | 72 | 1015.9 |
| 20260508050208 | 7 | 204 | 4.8 | 6.4 | 0.00 | 0.00 | 0.00 | 74 | 1016.1 |
| 20260508044253 | 6 | 180 | 0.0 | 1.6 | 0.00 | 0.00 | 0.00 | 80 | 1016.0 |
| 20260508043253 | 6 | 188 | 1.6 | 3.2 | 0.00 | 0.00 | 0.00 | 83 | 1016.0 |
| 20260508043154 | 6 | 225 | 1.6 | 3.2 | 0.00 | 0.00 | 0.00 | 84 | 1016.0 |
| 20260508041154 | 5 | 225 | 0.0 | 0.0 | 0.00 | 0.00 | 0.00 | 87 | 1016.0 |
| 20260508040153 | 5 | 225 | 0.0 | 1.6 | 0.00 | 0.00 | 0.00 | 87 | 1015.8 |
| 20260508035244 | 5 | 225 | 0.0 | 0.0 | 0.00 | 0.00 | 0.00 | 86 | 1015.8 |
| 20260508034243 | 5 | 225 | 0.0 | 0.0 | 0.00 | 0.00 | 0.00 | 85 | 1015.8 |
| 20260508033245 | 5 | 225 | 0.0 | 0.0 | 0.00 | 0.00 | 0.00 | 86 | 1015.6 |
| 20260508031245 | 6 | 225 | 0.0 | 0.0 | 0.00 | 0.00 | 0.00 | 86 | 1015.9 |
| 20260508025247 | 6 | 225 | 0.0 | 0.0 | 0.00 | 0.00 | 0.00 | 84 | 1015.9 |
| 20260508024244 | 6 | 225 | 0.0 | 0.0 | 0.00 | 0.00 | 0.00 | 84 | 1015.9 |
| 20260508023243 | 6 | 225 | 0.0 | 0.0 | 0.00 | 0.00 | 0.00 | 81 | 1015.8 |
| 20260508022245 | 6 | 225 | 0.0 | 0.0 | 0.00 | 0.00 | 0.00 | 82 | 1015.9 |
| 20260508021246 | 6 | 225 | 0.0 | 0.0 | 0.00 | 0.00 | 0.00 | 79 | 1015.9 |
| 20260508020244 | 6 | 225 | 0.0 | 0.0 | 0.00 | 0.00 | 0.00 | 75 | 1016.0 |
| 20260508015243 | 7 | 225 | 0.0 | 0.0 | 0.00 | 0.00 | 0.00 | 75 | 1016.0 |
| 20260508014245 | 7 | 225 | 0.0 | 0.0 | 0.00 | 0.00 | 0.00 | 73 | 1016.0 |
| 20260508013344 | 7 | 225 | 0.0 | 0.0 | 0.00 | 0.00 | 0.00 | 73 | 1016.0 |
| 20260508012401 | 7 | 225 | 0.0 | 0.0 | 0.00 | 0.00 | 0.00 | 70 | 1016.0 |
| 20260508011401 | 8 | 225 | 0.0 | 0.0 | 0.00 | 0.00 | 0.00 | 65 | 1015.9 |
| 20260508010446 | 8 | 225 | 0.0 | 0.0 | 0.00 | 0.00 | 0.00 | 62 | 1015.8 |
| 20260508005444 | 9 | 225 | 0.0 | 0.0 | 0.00 | 0.00 | 0.00 | 61 | 1015.8 |
| 20260508004544 | 10 | 225 | 0.0 | 0.0 | 0.00 | 0.00 | 0.00 | 56 | 1015.8 |
| 20260508003545 | 10 | 225 | 0.0 | 0.0 | 0.00 | 0.00 | 0.00 | 52 | 1015.8 |
| 20260508001647 | 11 | 247 | 0.0 | 0.0 | 0.00 | 0.00 | 0.00 | 48 | 1015.7 |
| 20260508000646 | 12 | 303 | 0.0 | 1.6 | 0.00 | 0.00 | 0.00 | 45 | 1015.7 |
| 20260507235646 | 12 | 270 | 0.0 | 0.0 | 0.00 | 0.00 | 0.00 | 44 | 1015.6 |
| 20260507234644 | 13 | 259 | 0.0 | 3.2 | 0.00 | 0.00 | 0.00 | 42 | 1015.6 |
| 20260507233642 | 14 | 277 | 4.8 | 8.0 | 0.00 | 0.00 | 0.00 | 38 | 1015.6 |
| 20260507231645 | 16 | 270 | 0.0 | 1.6 | 0.00 | 0.00 | 0.00 | 45 | 1015.4 |
| 20260507224843 | 17 | 318 | 0.0 | 3.2 | 0.00 | 0.00 | 0.00 | 42 | 1015.6 |
| 20260507223844 | 17 | 327 | 1.6 | 6.4 | 0.00 | 0.00 | 0.00 | 42 | 1015.7 |
| 20260507221845 | 17 | 308 | 1.6 | 3.2 | 0.00 | 0.00 | 0.00 | 46 | 1015.7 |
| 20260507220845 | 16 | 265 | 8.0 | 12.9 | 0.00 | 0.00 | 0.00 | 49 | 1015.6 |
| 20260507215900 | 15 | 281 | 0.0 | 3.2 | 0.00 | 0.00 | 0.00 | 42 | 1015.7 |
| 20260507214945 | 15 | 253 | 4.8 | 11.3 | 0.00 | 0.00 | 0.00 | 39 | 1015.7 |
| 20260507214043 | 15 | 238 | 11.3 | 17.7 | 0.00 | 0.00 | 0.00 | 39 | 1015.5 |
| 20260507213043 | 16 | 258 | 6.4 | 11.3 | 0.00 | 0.00 | 0.00 | 46 | 1015.4 |
| 20260507212045 | 16 | 312 | 1.6 | 4.8 | 0.00 | 0.00 | 0.00 | 47 | 1015.4 |
| 20260507210945 | 15 | 273 | 6.4 | 12.9 | 0.00 | 0.00 | 0.00 | 48 | 1015.5 |
| 20260507203943 | 16 | 342 | 3.2 | 8.0 | 0.00 | 0.00 | 0.00 | 47 | 1015.2 |
| 20260507201044 | 16 | 267 | 8.0 | 11.3 | 0.00 | 0.00 | 0.00 | 48 | 1015.2 |
| 20260507200044 | 16 | 283 | 6.4 | 11.3 | 0.00 | 0.00 | 0.00 | 53 | 1015.4 |
| 20260507195144 | 15 | 336 | 0.0 | 3.2 | 0.00 | 0.00 | 0.00 | 46 | 1015.3 |
| 20260507194145 | 15 | 257 | 6.4 | 9.7 | 0.00 | 0.00 | 0.00 | 46 | 1015.5 |
| 20260507183144 | 15 | 231 | 3.2 | 6.4 | 0.00 | 0.00 | 0.00 | 56 | 1015.7 |
| 20260507182243 | 14 | 330 | 3.2 | 6.4 | 0.00 | 0.00 | 0.00 | 53 | 1015.9 |
| 20260507181342 | 13 | 268 | 3.2 | 6.4 | 0.00 | 0.00 | 0.00 | 54 | 1015.8 |
| 20260507180344 | 13 | 247 | 12.9 | 27.4 | 0.00 | 0.00 | 0.00 | 51 | 1015.8 |
| 20260507174443 | 13 | 358 | 1.6 | 4.8 | 0.00 | 0.00 | 0.00 | 56 | 1016.1 |
| 20260507173444 | 13 | 269 | 6.4 | 9.7 | 0.00 | 0.00 | 0.00 | 49 | 1016.1 |
| 20260507172444 | 12 | 260 | 9.7 | 16.1 | 0.00 | 0.00 | 0.00 | 50 | 1016.2 |
| 20260507171444 | 13 | 259 | 4.8 | 9.7 | 0.00 | 0.00 | 0.00 | 50 | 1016.4 |
| 20260507170444 | 13 | 295 | 3.2 | 6.4 | 0.00 | 0.00 | 0.00 | 49 | 1016.4 |
| 20260507165443 | 14 | 283 | 6.4 | 14.5 | 0.00 | 0.00 | 0.00 | 54 | 1016.5 |